Year,Month,Day,Hour,Minute,Value (Times are PST for temperature in C)
2008,11,13,00,00,10.80
2008,11,13,00,01,10.80
2008,11,13,00,02,10.80
2008,11,13,00,03,10.80
2008,11,13,00,04,10.80
2008,11,13,00,05,10.80
2008,11,13,00,06,10.80
2008,11,13,00,07,10.90
2008,11,13,00,08,10.90
2008,11,13,00,09,10.90
2008,11,13,00,10,10.90
2008,11,13,00,11,10.90
2008,11,13,00,12,10.90
2008,11,13,00,13,10.80
2008,11,13,00,14,10.80
2008,11,13,00,15,10.80
2008,11,13,00,16,10.80
2008,11,13,00,17,10.80
2008,11,13,00,18,10.80
2008,11,13,00,19,10.80
2008,11,13,00,20,10.80
2008,11,13,00,21,10.80
2008,11,13,00,22,10.80
2008,11,13,00,23,10.80
2008,11,13,00,24,10.80
2008,11,13,00,25,10.80
2008,11,13,00,26,10.80
2008,11,13,00,27,10.80
2008,11,13,00,28,10.80
2008,11,13,00,29,10.80
2008,11,13,00,30,10.80
2008,11,13,00,31,10.80
2008,11,13,00,32,10.80
2008,11,13,00,33,10.80
2008,11,13,00,34,10.80
2008,11,13,00,35,10.70
2008,11,13,00,36,10.70
2008,11,13,00,37,10.70
2008,11,13,00,38,10.70
2008,11,13,00,39,10.60
2008,11,13,00,40,10.60
2008,11,13,00,41,10.60
2008,11,13,00,42,10.60
2008,11,13,00,43,10.60
2008,11,13,00,44,10.60
2008,11,13,00,45,10.60
2008,11,13,00,46,10.60
2008,11,13,00,47,10.50
2008,11,13,00,48,10.40
2008,11,13,00,49,10.40
2008,11,13,00,50,10.40
2008,11,13,00,51,10.40
2008,11,13,00,52,10.40
2008,11,13,00,53,10.40
2008,11,13,00,54,10.40
2008,11,13,00,55,10.40
2008,11,13,00,56,10.30
2008,11,13,00,57,10.30
2008,11,13,00,58,10.30
2008,11,13,00,59,10.20
2008,11,13,01,00,10.20
2008,11,13,01,01,10.20
2008,11,13,01,02,10.20
2008,11,13,01,03,10.20
2008,11,13,01,04,10.20
2008,11,13,01,05,10.10
2008,11,13,01,06,10.10
2008,11,13,01,07,10.10
2008,11,13,01,08,10.10
2008,11,13,01,09,10.10
2008,11,13,01,10,10.10
2008,11,13,01,11,10.10
2008,11,13,01,12,10.00
2008,11,13,01,13,9.90
2008,11,13,01,14,9.90
2008,11,13,01,15,9.90
2008,11,13,01,16,9.90
2008,11,13,01,17,9.90
2008,11,13,01,18,9.90
2008,11,13,01,19,9.90
2008,11,13,01,20,9.90
2008,11,13,01,21,9.90
2008,11,13,01,22,9.90
2008,11,13,01,23,9.90
2008,11,13,01,24,9.90
2008,11,13,01,25,9.90
2008,11,13,01,26,9.90
2008,11,13,01,27,9.90
2008,11,13,01,28,9.90
2008,11,13,01,29,9.90
2008,11,13,01,30,9.90
2008,11,13,01,31,9.90
2008,11,13,01,32,9.90
2008,11,13,01,33,9.80
2008,11,13,01,34,9.80
2008,11,13,01,35,9.80
2008,11,13,01,36,9.80
2008,11,13,01,37,9.70
2008,11,13,01,38,9.70
2008,11,13,01,39,9.70
2008,11,13,01,40,9.70
2008,11,13,01,41,9.70
2008,11,13,01,42,9.70
2008,11,13,01,43,9.70
2008,11,13,01,44,9.60
2008,11,13,01,45,9.60
2008,11,13,01,46,9.60
2008,11,13,01,47,9.60
2008,11,13,01,48,9.60
2008,11,13,01,49,9.60
2008,11,13,01,50,9.50
2008,11,13,01,51,9.50
2008,11,13,01,52,9.50
2008,11,13,01,53,9.60
2008,11,13,01,54,9.60
2008,11,13,01,55,9.60
2008,11,13,01,56,9.60
2008,11,13,01,57,9.60
2008,11,13,01,58,9.60
2008,11,13,01,59,9.60
2008,11,13,02,00,9.60
2008,11,13,02,01,9.50
2008,11,13,02,02,9.50
2008,11,13,02,03,9.50
2008,11,13,02,04,9.40
2008,11,13,02,05,9.40
2008,11,13,02,06,9.40
2008,11,13,02,07,9.30
2008,11,13,02,08,9.30
2008,11,13,02,09,9.30
2008,11,13,02,10,9.30
2008,11,13,02,11,9.30
2008,11,13,02,12,9.30
2008,11,13,02,13,9.20
2008,11,13,02,14,9.20
2008,11,13,02,15,9.20
2008,11,13,02,16,9.20
2008,11,13,02,17,9.20
2008,11,13,02,18,9.20
2008,11,13,02,19,9.20
2008,11,13,02,20,9.20
2008,11,13,02,21,9.20
2008,11,13,02,22,9.10
2008,11,13,02,23,9.10
2008,11,13,02,24,9.10
2008,11,13,02,25,9.00
2008,11,13,02,26,9.00
2008,11,13,02,27,8.90
2008,11,13,02,28,8.90
2008,11,13,02,29,8.90
2008,11,13,02,30,8.90
2008,11,13,02,31,8.90
2008,11,13,02,32,8.90
2008,11,13,02,33,8.90
2008,11,13,02,34,8.90
2008,11,13,02,35,8.90
2008,11,13,02,36,8.90
2008,11,13,02,37,8.80
2008,11,13,02,38,8.80
2008,11,13,02,39,8.80
2008,11,13,02,40,8.80
2008,11,13,02,41,8.80
2008,11,13,02,42,8.80
2008,11,13,02,43,8.80
2008,11,13,02,44,8.80
2008,11,13,02,45,8.80
2008,11,13,02,46,8.80
2008,11,13,02,47,8.80
2008,11,13,02,48,8.80
2008,11,13,02,49,8.70
2008,11,13,02,50,8.70
2008,11,13,02,51,8.70
2008,11,13,02,52,8.70
2008,11,13,02,53,8.70
2008,11,13,02,54,8.70
2008,11,13,02,55,8.70
2008,11,13,02,56,8.70
2008,11,13,02,57,8.70
2008,11,13,02,58,8.70
2008,11,13,02,59,8.70
2008,11,13,03,00,8.70
2008,11,13,03,01,8.70
2008,11,13,03,02,8.70
2008,11,13,03,03,8.70
2008,11,13,03,04,8.70
2008,11,13,03,05,8.60
2008,11,13,03,06,8.60
2008,11,13,03,07,8.60
2008,11,13,03,08,8.60
2008,11,13,03,09,8.60
2008,11,13,03,10,8.60
2008,11,13,03,11,8.60
2008,11,13,03,12,8.60
2008,11,13,03,13,8.60
2008,11,13,03,14,8.60
2008,11,13,03,15,8.60
2008,11,13,03,16,8.50
2008,11,13,03,17,8.50
2008,11,13,03,18,8.50
2008,11,13,03,19,8.50
2008,11,13,03,20,8.50
2008,11,13,03,21,8.50
2008,11,13,03,22,8.50
2008,11,13,03,23,8.50
2008,11,13,03,24,8.50
2008,11,13,03,25,8.40
2008,11,13,03,26,8.40
2008,11,13,03,27,8.40
2008,11,13,03,28,8.40
2008,11,13,03,29,8.40
2008,11,13,03,30,8.40
2008,11,13,03,31,8.40
2008,11,13,03,32,8.40
2008,11,13,03,33,8.40
2008,11,13,03,34,8.40
2008,11,13,03,35,8.40
2008,11,13,03,36,8.40
2008,11,13,03,37,8.40
2008,11,13,03,38,8.40
2008,11,13,03,39,8.30
2008,11,13,03,40,8.20
2008,11,13,03,41,8.20
2008,11,13,03,42,8.20
2008,11,13,03,43,8.10
2008,11,13,03,44,8.00
2008,11,13,03,45,8.00
2008,11,13,03,46,7.90
2008,11,13,03,47,7.90
2008,11,13,03,48,7.90
2008,11,13,03,49,7.90
2008,11,13,03,50,7.90
2008,11,13,03,51,7.90
2008,11,13,03,52,7.80
2008,11,13,03,53,7.80
2008,11,13,03,54,7.80
2008,11,13,03,55,7.80
2008,11,13,03,56,7.70
2008,11,13,03,57,7.70
2008,11,13,03,58,7.70
2008,11,13,03,59,7.60
2008,11,13,04,00,7.60
2008,11,13,04,01,7.50
2008,11,13,04,02,7.50
2008,11,13,04,03,7.50
2008,11,13,04,04,7.60
2008,11,13,04,05,7.60
2008,11,13,04,06,7.70
2008,11,13,04,07,7.70
2008,11,13,04,08,7.70
2008,11,13,04,09,7.80
2008,11,13,04,10,7.80
2008,11,13,04,11,7.80
2008,11,13,04,12,7.80
2008,11,13,04,13,7.80
2008,11,13,04,14,7.80
2008,11,13,04,15,7.80
2008,11,13,04,16,7.80
2008,11,13,04,17,7.80
2008,11,13,04,18,7.80
2008,11,13,04,19,7.80
2008,11,13,04,20,7.80
2008,11,13,04,21,7.90
2008,11,13,04,22,7.80
2008,11,13,04,23,7.80
2008,11,13,04,24,7.80
2008,11,13,04,25,7.70
2008,11,13,04,26,7.80
2008,11,13,04,27,7.90
2008,11,13,04,28,8.00
2008,11,13,04,29,8.10
2008,11,13,04,30,8.00
2008,11,13,04,31,7.90
2008,11,13,04,32,7.80
2008,11,13,04,33,7.80
2008,11,13,04,34,7.80
2008,11,13,04,35,7.80
2008,11,13,04,36,7.80
2008,11,13,04,37,7.80
2008,11,13,04,38,7.80
2008,11,13,04,39,7.70
2008,11,13,04,40,7.70
2008,11,13,04,41,7.80
2008,11,13,04,42,7.70
2008,11,13,04,43,7.70
2008,11,13,04,44,7.70
2008,11,13,04,45,7.80
2008,11,13,04,46,7.80
2008,11,13,04,47,7.80
2008,11,13,04,48,7.80
2008,11,13,04,49,7.70
2008,11,13,04,50,7.70
2008,11,13,04,51,7.60
2008,11,13,04,52,7.50
2008,11,13,04,53,7.40
2008,11,13,04,54,7.40
2008,11,13,04,55,7.30
2008,11,13,04,56,7.30
2008,11,13,04,57,7.20
2008,11,13,04,58,7.20
2008,11,13,04,59,7.20
2008,11,13,05,00,7.20
2008,11,13,05,01,7.20
2008,11,13,05,02,7.10
2008,11,13,05,03,7.10
2008,11,13,05,04,7.10
2008,11,13,05,05,7.10
2008,11,13,05,06,7.00
2008,11,13,05,07,7.00
2008,11,13,05,08,7.00
2008,11,13,05,09,6.90
2008,11,13,05,10,6.90
2008,11,13,05,11,6.90
2008,11,13,05,12,6.90
2008,11,13,05,13,7.00
2008,11,13,05,14,7.00
2008,11,13,05,15,7.10
2008,11,13,05,16,7.20
2008,11,13,05,17,7.20
2008,11,13,05,18,7.20
2008,11,13,05,19,7.20
2008,11,13,05,20,7.20
2008,11,13,05,21,7.30
2008,11,13,05,22,7.30
2008,11,13,05,23,7.30
2008,11,13,05,24,7.30
2008,11,13,05,25,7.30
2008,11,13,05,26,7.30
2008,11,13,05,27,7.30
2008,11,13,05,28,7.30
2008,11,13,05,29,7.30
2008,11,13,05,30,7.40
2008,11,13,05,31,7.40
2008,11,13,05,32,7.40
2008,11,13,05,33,7.40
2008,11,13,05,34,7.50
2008,11,13,05,35,7.50
2008,11,13,05,36,7.50
2008,11,13,05,37,7.50
2008,11,13,05,38,7.40
2008,11,13,05,39,7.40
2008,11,13,05,40,7.40
2008,11,13,05,41,7.40
2008,11,13,05,42,7.40
2008,11,13,05,43,7.50
2008,11,13,05,44,7.50
2008,11,13,05,45,7.50
2008,11,13,05,46,7.50
2008,11,13,05,47,7.40
2008,11,13,05,48,7.40
2008,11,13,05,49,7.40
2008,11,13,05,50,7.30
2008,11,13,05,51,7.30
2008,11,13,05,52,7.30
2008,11,13,05,53,7.30
2008,11,13,05,54,7.30
2008,11,13,05,55,7.20
2008,11,13,05,56,7.20
2008,11,13,05,57,7.10
2008,11,13,05,58,7.10
2008,11,13,05,59,7.10
2008,11,13,06,00,7.10
2008,11,13,06,01,7.00
2008,11,13,06,02,7.00
2008,11,13,06,03,7.00
2008,11,13,06,04,7.00
2008,11,13,06,05,6.90
2008,11,13,06,06,6.90
2008,11,13,06,07,6.80
2008,11,13,06,08,6.80
2008,11,13,06,09,6.80
2008,11,13,06,10,6.70
2008,11,13,06,11,6.60
2008,11,13,06,12,6.50
2008,11,13,06,13,6.40
2008,11,13,06,14,6.30
2008,11,13,06,15,6.20
2008,11,13,06,16,6.20
2008,11,13,06,17,6.10
2008,11,13,06,18,6.00
2008,11,13,06,19,6.00
2008,11,13,06,20,5.90
2008,11,13,06,21,5.90
2008,11,13,06,22,5.80
2008,11,13,06,23,5.80
2008,11,13,06,24,5.70
2008,11,13,06,25,5.70
2008,11,13,06,26,5.70
2008,11,13,06,27,5.60
2008,11,13,06,28,5.60
2008,11,13,06,29,5.60
2008,11,13,06,30,5.50
2008,11,13,06,31,5.50
2008,11,13,06,32,5.40
2008,11,13,06,33,5.40
2008,11,13,06,34,5.40
2008,11,13,06,35,5.40
2008,11,13,06,36,5.40
2008,11,13,06,37,5.40
2008,11,13,06,38,5.40
2008,11,13,06,39,5.30
2008,11,13,06,40,5.30
2008,11,13,06,41,5.30
2008,11,13,06,42,5.30
2008,11,13,06,43,5.30
2008,11,13,06,44,5.30
2008,11,13,06,45,5.30
2008,11,13,06,46,5.20
2008,11,13,06,47,5.20
2008,11,13,06,48,5.20
2008,11,13,06,49,5.10
2008,11,13,06,50,5.10
2008,11,13,06,51,5.10
2008,11,13,06,52,5.10
2008,11,13,06,53,5.00
2008,11,13,06,54,4.90
2008,11,13,06,55,4.90
2008,11,13,06,56,4.90
2008,11,13,06,57,4.90
2008,11,13,06,58,4.80
2008,11,13,06,59,4.80
2008,11,13,07,00,4.80
2008,11,13,07,01,4.70
2008,11,13,07,02,4.70
2008,11,13,07,03,4.60
2008,11,13,07,04,4.60
2008,11,13,07,05,4.60
2008,11,13,07,06,4.60
2008,11,13,07,07,4.50
2008,11,13,07,08,4.50
2008,11,13,07,09,4.40
2008,11,13,07,10,4.40
2008,11,13,07,11,4.40
2008,11,13,07,12,4.30
2008,11,13,07,13,4.30
2008,11,13,07,14,4.30
2008,11,13,07,15,4.30
2008,11,13,07,16,4.20
2008,11,13,07,17,4.20
2008,11,13,07,18,4.20
2008,11,13,07,19,4.20
2008,11,13,07,20,4.20
2008,11,13,07,21,4.20
2008,11,13,07,22,4.20
2008,11,13,07,23,4.20
2008,11,13,07,24,4.20
2008,11,13,07,25,4.20
2008,11,13,07,26,4.20
2008,11,13,07,27,4.20
2008,11,13,07,28,4.20
2008,11,13,07,29,4.20
2008,11,13,07,30,4.20
2008,11,13,07,31,4.20
2008,11,13,07,32,4.20
2008,11,13,07,33,4.20
2008,11,13,07,34,4.20
2008,11,13,07,35,4.20
2008,11,13,07,36,4.20
2008,11,13,07,37,4.20
2008,11,13,07,38,4.20
2008,11,13,07,39,4.10
2008,11,13,07,40,4.00
2008,11,13,07,41,3.90
2008,11,13,07,42,3.80
2008,11,13,07,43,3.70
2008,11,13,07,44,3.60
2008,11,13,07,45,3.60
2008,11,13,07,46,3.60
2008,11,13,07,47,3.60
2008,11,13,07,48,3.70
2008,11,13,07,49,3.70
2008,11,13,07,50,3.80
2008,11,13,07,51,3.80
2008,11,13,07,52,3.80
2008,11,13,07,53,3.90
2008,11,13,07,54,3.90
2008,11,13,07,55,3.80
2008,11,13,07,56,3.80
2008,11,13,07,57,3.70
2008,11,13,07,58,3.60
2008,11,13,07,59,3.60
2008,11,13,08,00,3.50
2008,11,13,08,01,3.50
2008,11,13,08,02,3.50
2008,11,13,08,03,3.50
2008,11,13,08,04,3.50
2008,11,13,08,05,3.60
2008,11,13,08,06,3.60
2008,11,13,08,07,3.70
2008,11,13,08,08,3.80
2008,11,13,08,09,3.90
2008,11,13,08,10,3.90
2008,11,13,08,11,4.00
2008,11,13,08,12,4.00
2008,11,13,08,13,4.00
2008,11,13,08,14,4.10
2008,11,13,08,15,4.10
2008,11,13,08,16,4.10
2008,11,13,08,17,4.10
2008,11,13,08,18,4.10
2008,11,13,08,19,4.10
2008,11,13,08,20,4.20
2008,11,13,08,21,4.20
2008,11,13,08,22,4.10
2008,11,13,08,23,4.10
2008,11,13,08,24,4.00
2008,11,13,08,25,4.00
2008,11,13,08,26,4.00
2008,11,13,08,27,3.90
2008,11,13,08,28,4.00
2008,11,13,08,29,4.00
2008,11,13,08,30,4.10
2008,11,13,08,31,4.20
2008,11,13,08,32,4.30
2008,11,13,08,33,4.50
2008,11,13,08,34,4.50
2008,11,13,08,35,4.60
2008,11,13,08,36,4.70
2008,11,13,08,37,4.70
2008,11,13,08,38,4.80
2008,11,13,08,39,4.80
2008,11,13,08,40,4.90
2008,11,13,08,41,4.90
2008,11,13,08,42,5.10
2008,11,13,08,43,5.10
2008,11,13,08,44,5.10
2008,11,13,08,45,5.20
2008,11,13,08,46,5.30
2008,11,13,08,47,5.40
2008,11,13,08,48,5.50
2008,11,13,08,49,5.60
2008,11,13,08,50,5.70
2008,11,13,08,51,5.90
2008,11,13,08,52,6.00
2008,11,13,08,53,6.20
2008,11,13,08,54,6.20
2008,11,13,08,55,6.30
2008,11,13,08,56,6.30
2008,11,13,08,57,6.40
2008,11,13,08,58,6.50
2008,11,13,08,59,6.60
2008,11,13,09,00,6.60
2008,11,13,09,01,6.70
2008,11,13,09,02,6.70
2008,11,13,09,03,6.80
2008,11,13,09,04,6.80
2008,11,13,09,05,6.80
2008,11,13,09,06,6.80
2008,11,13,09,07,6.90
2008,11,13,09,08,6.90
2008,11,13,09,09,7.00
2008,11,13,09,10,7.00
2008,11,13,09,11,7.10
2008,11,13,09,12,7.20
2008,11,13,09,13,7.30
2008,11,13,09,14,7.40
2008,11,13,09,15,7.60
2008,11,13,09,16,7.80
2008,11,13,09,17,7.90
2008,11,13,09,18,8.00
2008,11,13,09,19,8.10
2008,11,13,09,20,8.20
2008,11,13,09,21,8.40
2008,11,13,09,22,8.40
2008,11,13,09,23,8.50
2008,11,13,09,24,8.50
2008,11,13,09,25,8.60
2008,11,13,09,26,8.60
2008,11,13,09,27,8.60
2008,11,13,09,28,8.60
2008,11,13,09,29,8.60
2008,11,13,09,30,8.60
2008,11,13,09,31,8.60
2008,11,13,09,32,8.60
2008,11,13,09,33,8.70
2008,11,13,09,34,8.70
2008,11,13,09,35,8.70
2008,11,13,09,36,8.60
2008,11,13,09,37,8.60
2008,11,13,09,38,8.60
2008,11,13,09,39,8.60
2008,11,13,09,40,8.70
2008,11,13,09,41,8.70
2008,11,13,09,42,8.70
2008,11,13,09,43,8.70
2008,11,13,09,44,8.70
2008,11,13,09,45,8.80
2008,11,13,09,46,8.90
2008,11,13,09,47,9.00
2008,11,13,09,48,9.00
2008,11,13,09,49,9.00
2008,11,13,09,50,9.10
2008,11,13,09,51,9.20
2008,11,13,09,52,9.30
2008,11,13,09,53,9.40
2008,11,13,09,54,9.50
2008,11,13,09,55,9.50
2008,11,13,09,56,9.50
2008,11,13,09,57,9.60
2008,11,13,09,58,9.70
2008,11,13,09,59,9.70
2008,11,13,10,00,9.70
2008,11,13,10,01,9.80
2008,11,13,10,02,9.80
2008,11,13,10,03,9.80
2008,11,13,10,04,9.70
2008,11,13,10,05,9.70
2008,11,13,10,06,9.70
2008,11,13,10,07,9.70
2008,11,13,10,08,9.70
2008,11,13,10,09,9.70
2008,11,13,10,10,9.80
2008,11,13,10,11,9.80
2008,11,13,10,12,9.80
2008,11,13,10,13,9.80
2008,11,13,10,14,9.80
2008,11,13,10,15,9.80
2008,11,13,10,16,9.90
2008,11,13,10,17,9.90
2008,11,13,10,18,9.90
2008,11,13,10,19,9.90
2008,11,13,10,20,9.90
2008,11,13,10,21,10.10
2008,11,13,10,22,10.10
2008,11,13,10,23,10.10
2008,11,13,10,24,10.10
2008,11,13,10,25,10.20
2008,11,13,10,26,10.20
2008,11,13,10,27,10.20
2008,11,13,10,28,10.30
2008,11,13,10,29,10.30
2008,11,13,10,30,10.30
2008,11,13,10,31,10.30
2008,11,13,10,32,10.30
2008,11,13,10,33,10.30
2008,11,13,10,34,10.30
2008,11,13,10,35,10.30
2008,11,13,10,36,10.40
2008,11,13,10,37,10.40
2008,11,13,10,38,10.50
2008,11,13,10,39,10.60
2008,11,13,10,40,10.60
2008,11,13,10,41,10.60
2008,11,13,10,42,10.60
2008,11,13,10,43,10.60
2008,11,13,10,44,10.60
2008,11,13,10,45,10.60
2008,11,13,10,46,10.60
2008,11,13,10,47,10.60
2008,11,13,10,48,10.60
2008,11,13,10,49,10.70
2008,11,13,10,50,10.70
2008,11,13,10,51,10.70
2008,11,13,10,52,10.70
2008,11,13,10,53,10.70
2008,11,13,10,54,10.70
2008,11,13,10,55,10.70
2008,11,13,10,56,10.70
2008,11,13,10,57,10.70
2008,11,13,10,58,10.60
2008,11,13,10,59,10.60
2008,11,13,11,00,10.60
2008,11,13,11,01,10.70
2008,11,13,11,02,10.60
2008,11,13,11,03,10.60
2008,11,13,11,04,10.70
2008,11,13,11,05,10.70
2008,11,13,11,06,10.70
2008,11,13,11,07,10.70
2008,11,13,11,08,10.70
2008,11,13,11,09,10.70
2008,11,13,11,10,10.60
2008,11,13,11,11,10.60
2008,11,13,11,12,10.60
2008,11,13,11,13,10.60
2008,11,13,11,14,10.60
2008,11,13,11,15,10.60
2008,11,13,11,16,10.60
2008,11,13,11,17,10.70
2008,11,13,11,18,10.70
2008,11,13,11,19,10.70
2008,11,13,11,20,10.70
2008,11,13,11,21,10.70
2008,11,13,11,22,10.80
2008,11,13,11,23,10.80
2008,11,13,11,24,10.90
2008,11,13,11,25,10.90
2008,11,13,11,26,10.90
2008,11,13,11,27,10.90
2008,11,13,11,28,10.90
2008,11,13,11,29,10.90
2008,11,13,11,30,10.90
2008,11,13,11,31,10.90
2008,11,13,11,32,10.90
2008,11,13,11,33,10.90
2008,11,13,11,34,10.90
2008,11,13,11,35,10.90
2008,11,13,11,36,11.10
2008,11,13,11,37,11.10
2008,11,13,11,38,11.10
2008,11,13,11,39,11.10
2008,11,13,11,40,11.10
2008,11,13,11,41,11.10
2008,11,13,11,42,11.10
2008,11,13,11,43,11.10
2008,11,13,11,44,11.10
2008,11,13,11,45,11.10
2008,11,13,11,46,11.10
2008,11,13,11,47,11.10
2008,11,13,11,48,11.10
2008,11,13,11,49,10.90
2008,11,13,11,50,10.90
2008,11,13,11,51,10.80
2008,11,13,11,52,10.70
2008,11,13,11,53,10.70
2008,11,13,11,54,10.60
2008,11,13,11,55,10.60
2008,11,13,11,56,10.60
2008,11,13,11,57,10.50
2008,11,13,11,58,10.40
2008,11,13,11,59,10.40
2008,11,13,12,00,10.40
2008,11,13,12,01,10.40
2008,11,13,12,02,10.40
2008,11,13,12,03,10.40
2008,11,13,12,04,10.40
2008,11,13,12,05,10.40
2008,11,13,12,06,10.40
2008,11,13,12,07,10.40
2008,11,13,12,08,10.50
2008,11,13,12,09,10.60
2008,11,13,12,10,10.60
2008,11,13,12,11,10.60
2008,11,13,12,12,10.70
2008,11,13,12,13,10.90
2008,11,13,12,14,11.00
2008,11,13,12,15,11.10
2008,11,13,12,16,11.20
2008,11,13,12,17,11.20
2008,11,13,12,18,11.20
2008,11,13,12,19,11.30
2008,11,13,12,20,11.30
2008,11,13,12,21,11.30
2008,11,13,12,22,11.30
2008,11,13,12,23,11.20
2008,11,13,12,24,11.20
2008,11,13,12,25,11.30
2008,11,13,12,26,11.30
2008,11,13,12,27,11.30
2008,11,13,12,28,11.30
2008,11,13,12,29,11.30
2008,11,13,12,30,11.30
2008,11,13,12,31,11.30
2008,11,13,12,32,11.30
2008,11,13,12,33,11.30
2008,11,13,12,34,11.30
2008,11,13,12,35,11.30
2008,11,13,12,36,11.20
2008,11,13,12,37,11.20
2008,11,13,12,38,11.20
2008,11,13,12,39,11.20
2008,11,13,12,40,11.10
2008,11,13,12,41,11.20
2008,11,13,12,42,11.20
2008,11,13,12,43,11.20
2008,11,13,12,44,11.20
2008,11,13,12,45,11.20
2008,11,13,12,46,11.30
2008,11,13,12,47,11.30
2008,11,13,12,48,11.40
2008,11,13,12,49,11.40
2008,11,13,12,50,11.40
2008,11,13,12,51,11.50
2008,11,13,12,52,11.60
2008,11,13,12,53,11.60
2008,11,13,12,54,11.60
2008,11,13,12,55,11.60
2008,11,13,12,56,11.60
2008,11,13,12,57,11.40
2008,11,13,12,58,11.40
2008,11,13,12,59,11.30
2008,11,13,13,00,11.20
2008,11,13,13,01,11.10
2008,11,13,13,02,11.10
2008,11,13,13,03,11.10
2008,11,13,13,04,11.10
2008,11,13,13,05,11.10
2008,11,13,13,06,11.10
2008,11,13,13,07,11.20
2008,11,13,13,08,11.20
2008,11,13,13,09,11.30
2008,11,13,13,10,11.30
2008,11,13,13,11,11.40
2008,11,13,13,12,11.40
2008,11,13,13,13,11.40
2008,11,13,13,14,11.50
2008,11,13,13,15,11.40
2008,11,13,13,16,11.40
2008,11,13,13,17,11.50
2008,11,13,13,18,11.60
2008,11,13,13,19,11.60
2008,11,13,13,20,11.60
2008,11,13,13,21,11.70
2008,11,13,13,22,11.70
2008,11,13,13,23,11.70
2008,11,13,13,24,11.70
2008,11,13,13,25,11.80
2008,11,13,13,26,11.80
2008,11,13,13,27,11.80
2008,11,13,13,28,11.70
2008,11,13,13,29,11.60
2008,11,13,13,30,11.50
2008,11,13,13,31,11.40
2008,11,13,13,32,11.40
2008,11,13,13,33,11.30
2008,11,13,13,34,11.30
2008,11,13,13,35,11.30
2008,11,13,13,36,11.30
2008,11,13,13,37,11.20
2008,11,13,13,38,11.20
2008,11,13,13,39,11.20
2008,11,13,13,40,11.20
2008,11,13,13,41,11.20
2008,11,13,13,42,11.20
2008,11,13,13,43,11.20
2008,11,13,13,44,11.20
2008,11,13,13,45,11.20
2008,11,13,13,46,11.20
2008,11,13,13,47,11.20
2008,11,13,13,48,11.20
2008,11,13,13,49,11.10
2008,11,13,13,50,11.10
2008,11,13,13,51,11.10
2008,11,13,13,52,11.10
2008,11,13,13,53,11.10
2008,11,13,13,54,11.00
2008,11,13,13,55,10.90
2008,11,13,13,56,10.90
2008,11,13,13,57,10.90
2008,11,13,13,58,10.90
2008,11,13,13,59,10.90
2008,11,13,14,00,10.90
2008,11,13,14,01,10.90
2008,11,13,14,02,10.90
2008,11,13,14,03,10.90
2008,11,13,14,04,10.90
2008,11,13,14,05,10.90
2008,11,13,14,06,10.90
2008,11,13,14,07,10.90
2008,11,13,14,08,10.90
2008,11,13,14,09,10.90
2008,11,13,14,10,10.90
2008,11,13,14,11,11.10
2008,11,13,14,12,11.10
2008,11,13,14,13,11.10
2008,11,13,14,14,11.10
2008,11,13,14,15,11.10
2008,11,13,14,16,11.20
2008,11,13,14,17,11.30
2008,11,13,14,18,11.30
2008,11,13,14,19,11.30
2008,11,13,14,20,11.30
2008,11,13,14,21,11.30
2008,11,13,14,22,11.30
2008,11,13,14,23,11.20
2008,11,13,14,24,11.20
2008,11,13,14,25,11.20
2008,11,13,14,26,11.20
2008,11,13,14,27,11.10
2008,11,13,14,28,11.10
2008,11,13,14,29,11.10
2008,11,13,14,30,10.90
2008,11,13,14,31,10.90
2008,11,13,14,32,10.90
2008,11,13,14,33,10.90
2008,11,13,14,34,10.90
2008,11,13,14,35,10.90
2008,11,13,14,36,10.90
2008,11,13,14,37,10.90
2008,11,13,14,38,10.90
2008,11,13,14,39,10.90
2008,11,13,14,40,10.80
2008,11,13,14,41,10.80
2008,11,13,14,42,10.80
2008,11,13,14,43,10.80
2008,11,13,14,44,10.80
2008,11,13,14,45,10.80
2008,11,13,14,46,10.80
2008,11,13,14,47,10.70
2008,11,13,14,48,10.70
2008,11,13,14,49,10.60
2008,11,13,14,50,10.60
2008,11,13,14,51,10.60
2008,11,13,14,52,10.60
2008,11,13,14,53,10.60
2008,11,13,14,54,10.50
2008,11,13,14,55,10.40
2008,11,13,14,56,10.40
2008,11,13,14,57,10.40
2008,11,13,14,58,10.40
2008,11,13,14,59,10.40
2008,11,13,15,00,10.40
2008,11,13,15,01,10.40
2008,11,13,15,02,10.40
2008,11,13,15,03,10.40
2008,11,13,15,04,10.40
2008,11,13,15,05,10.30
2008,11,13,15,06,10.30
2008,11,13,15,07,10.20
2008,11,13,15,08,10.10
2008,11,13,15,09,10.10
2008,11,13,15,10,10.00
2008,11,13,15,11,9.90
2008,11,13,15,12,9.90
2008,11,13,15,13,9.90
2008,11,13,15,14,9.90
2008,11,13,15,15,9.90
2008,11,13,15,16,9.80
2008,11,13,15,17,9.80
2008,11,13,15,18,9.80
2008,11,13,15,19,9.70
2008,11,13,15,20,9.70
2008,11,13,15,21,9.70
2008,11,13,15,22,9.70
2008,11,13,15,23,9.60
2008,11,13,15,24,9.60
2008,11,13,15,25,9.60
2008,11,13,15,26,9.60
2008,11,13,15,27,9.50
2008,11,13,15,28,9.50
2008,11,13,15,29,9.50
2008,11,13,15,30,9.50
2008,11,13,15,31,9.50
2008,11,13,15,32,9.50
2008,11,13,15,33,9.50
2008,11,13,15,34,9.50
2008,11,13,15,35,9.50
2008,11,13,15,36,9.50
2008,11,13,15,37,9.50
2008,11,13,15,38,9.50
2008,11,13,15,39,9.50
2008,11,13,15,40,9.40
2008,11,13,15,41,9.40
2008,11,13,15,42,9.40
2008,11,13,15,43,9.40
2008,11,13,15,44,9.40
2008,11,13,15,45,9.40
2008,11,13,15,46,9.30
2008,11,13,15,47,9.30
2008,11,13,15,48,9.30
2008,11,13,15,49,9.20
2008,11,13,15,50,9.20
2008,11,13,15,51,9.20
2008,11,13,15,52,9.20
2008,11,13,15,53,9.20
2008,11,13,15,54,9.20
2008,11,13,15,55,9.20
2008,11,13,15,56,9.20
2008,11,13,15,57,9.20
2008,11,13,15,58,9.20
2008,11,13,15,59,9.20
2008,11,13,16,00,9.20
2008,11,13,16,01,9.20
2008,11,13,16,02,9.20
2008,11,13,16,03,9.20
2008,11,13,16,04,9.20
2008,11,13,16,05,9.20
2008,11,13,16,06,9.20
2008,11,13,16,07,9.20
2008,11,13,16,08,9.20
2008,11,13,16,09,9.20
2008,11,13,16,10,9.20
2008,11,13,16,11,9.20
2008,11,13,16,12,9.20
2008,11,13,16,13,9.20
2008,11,13,16,14,9.20
2008,11,13,16,15,9.20
2008,11,13,16,16,9.20
2008,11,13,16,17,9.20
2008,11,13,16,18,9.10
2008,11,13,16,19,9.10
2008,11,13,16,20,9.10
2008,11,13,16,21,9.10
2008,11,13,16,22,9.10
2008,11,13,16,23,9.00
2008,11,13,16,24,9.00
2008,11,13,16,25,9.00
2008,11,13,16,26,9.00
2008,11,13,16,27,9.00
2008,11,13,16,28,9.00
2008,11,13,16,29,9.00
2008,11,13,16,30,9.00
2008,11,13,16,31,9.00
2008,11,13,16,32,9.00
2008,11,13,16,33,8.90
2008,11,13,16,34,8.90
2008,11,13,16,35,8.90
2008,11,13,16,36,8.90
2008,11,13,16,37,8.90
2008,11,13,16,38,8.80
2008,11,13,16,39,8.80
2008,11,13,16,40,8.80
2008,11,13,16,41,8.80
2008,11,13,16,42,8.80
2008,11,13,16,43,8.80
2008,11,13,16,44,8.80
2008,11,13,16,45,8.80
2008,11,13,16,46,8.70
2008,11,13,16,47,8.70
2008,11,13,16,48,8.70
2008,11,13,16,49,8.70
2008,11,13,16,50,8.70
2008,11,13,16,51,8.80
2008,11,13,16,52,8.80
2008,11,13,16,53,8.70
2008,11,13,16,54,8.70
2008,11,13,16,55,8.70
2008,11,13,16,56,8.70
2008,11,13,16,57,8.70
2008,11,13,16,58,8.70
2008,11,13,16,59,8.70
2008,11,13,17,00,8.70
2008,11,13,17,01,8.70
2008,11,13,17,02,8.70
2008,11,13,17,03,8.70
2008,11,13,17,04,8.70
2008,11,13,17,05,8.70
2008,11,13,17,06,8.60
2008,11,13,17,07,8.60
2008,11,13,17,08,8.50
2008,11,13,17,09,8.50
2008,11,13,17,10,8.50
2008,11,13,17,11,8.40
2008,11,13,17,12,8.40
2008,11,13,17,13,8.30
2008,11,13,17,14,8.30
2008,11,13,17,15,8.20
2008,11,13,17,16,8.20
2008,11,13,17,17,8.20
2008,11,13,17,18,8.10
2008,11,13,17,19,8.10
2008,11,13,17,20,8.00
2008,11,13,17,21,8.00
2008,11,13,17,22,7.90
2008,11,13,17,23,7.80
2008,11,13,17,24,7.80
2008,11,13,17,25,7.70
2008,11,13,17,26,7.70
2008,11,13,17,27,7.60
2008,11,13,17,28,7.60
2008,11,13,17,29,7.50
2008,11,13,17,30,7.50
2008,11,13,17,31,7.40
2008,11,13,17,32,7.40
2008,11,13,17,33,7.30
2008,11,13,17,34,7.30
2008,11,13,17,35,7.30
2008,11,13,17,36,7.30
2008,11,13,17,37,7.20
2008,11,13,17,38,7.10
2008,11,13,17,39,7.10
2008,11,13,17,40,7.00
2008,11,13,17,41,6.90
2008,11,13,17,42,6.90
2008,11,13,17,43,6.80
2008,11,13,17,44,6.80
2008,11,13,17,45,6.70
2008,11,13,17,46,6.70
2008,11,13,17,47,6.60
2008,11,13,17,48,6.60
2008,11,13,17,49,6.60
2008,11,13,17,50,6.60